Lewistown, MT

3:19 PM MDT on May 24, 2017 (GMT -0600)
Lewistown Municipal

Weather History for KLWT - December, 2013

Change the Weather History Date:

Monday, December 23, 2013

  Actual Average Record
Temperature  
Mean Temperature 22 °F 22 °F  
Max Temperature 42 °F 33 °F 60 °F (1994)
Min Temperature 1 °F 12 °F -37 °F (1983)
Degree Days  
Heating Degree Days 43 43  
Month to date heating degree days 1142 954  
Since 1 July heating degree days 3120 3082  
Cooling Degree Days 0 0  
Month to date cooling degree days 0 0  
Year to date cooling degree days 277 210  
Moisture  
Dew Point 22 °F    
Average Humidity 80    
Maximum Humidity 95    
Minimum Humidity 65    
Precipitation  
Precipitation 0.03 in 0.02 in 0.88 in (1977)
Month to date precipitation 0.56 0.48  
Year to date precipitation 22.39 16.67  
Snow  
Snow 0.00 in - - ()
Snow Depth 8.00 in    
Sea Level Pressure  
Sea Level Pressure 30.06 in    
Wind  
Wind Speed 13 mph (SW)    
Max Wind Speed 26 mph    
Max Gust Speed 40 mph    
Visibility 10 miles    
Events Rain    
T = Trace of Precipitation, MM = Missing Value Source: NWS Daily Summary

Daily Weather History Graph

Daily Weather History Graph

Search for Another Location

Airport or City:

Trip Planner

Search our weather history database for the weather conditions in past years. The results will help you decide how hot, cold, wet, or windy it might be!

Date:

Astronomy

Dec. 23, 2013 Rise Set
Actual Time 8:02 AM MST 4:32 PM MST
Civil Twilight 7:26 AM MST 5:07 PM MST
Nautical Twilight 6:47 AM MST 5:46 PM MST
Astronomical Twilight 6:10 AM MST 6:23 PM MST
Moon 11:08 PM MST (12/23) 11:07 AM MST (12/23)
Length of Visible Light 9h 41m
Length of Day
8h 30m
Waning Gibbous, 67% of the Moon is Illuminated
Dec 23
Waning Gibbous
Dec 25
Last Quarter
Jan 1
New
Jan 7
First Quarter
Jan 15
Full

Hourly Weather History & Observations

Time (MST) Temp. Windchill Dew Point Humidity Pressure Visibility Wind Dir Wind Speed Gust Speed Precip Events Conditions
12:54 AM 1.9 °F -13.8 °F -0.9 °F 88% 30.35 in 10.0 mi SE 10.4 mph - N/A   Clear
1:54 AM 1.9 °F -12.9 °F -2.0 °F 83% 30.33 in 10.0 mi SE 9.2 mph - N/A   Clear
2:54 AM 3.0 °F -12.5 °F -0.9 °F 84% 30.31 in 10.0 mi SE 10.4 mph - N/A   Clear
3:54 AM 6.1 °F -6.8 °F 3.0 °F 87% 30.28 in 10.0 mi SE 8.1 mph - N/A   Clear
4:54 AM 10.0 °F -1.9 °F 6.1 °F 84% 30.26 in 10.0 mi ESE 8.1 mph - N/A   Clear
5:54 AM 12.0 °F 1.5 °F 7.0 °F 80% 30.24 in 10.0 mi ESE 6.9 mph - N/A   Clear
6:54 AM 15.1 °F 5.2 °F 10.9 °F 84% 30.21 in 10.0 mi ESE 6.9 mph - N/A   Clear
7:54 AM 21.9 °F - 18.0 °F 85% 30.17 in 10.0 mi Calm Calm - N/A   Overcast
8:54 AM 33.1 °F 22.6 °F 27.0 °F 78% 30.11 in 10.0 mi SW 16.1 mph - N/A   Mostly Cloudy
9:54 AM 36.0 °F 27.5 °F 28.9 °F 76% 30.09 in 10.0 mi WSW 12.7 mph - N/A   Overcast
10:54 AM 37.9 °F 27.9 °F 30.0 °F 73% 30.06 in 10.0 mi SW 19.6 mph - N/A   Overcast
11:54 AM 37.9 °F 28.9 °F 30.0 °F 73% 30.04 in 10.0 mi WSW 16.1 mph - N/A   Mostly Cloudy
12:54 PM 39.0 °F 29.6 °F 30.0 °F 70% 30.02 in 10.0 mi WSW 18.4 mph - N/A   Partly Cloudy
1:54 PM 37.0 °F 29.3 °F 30.9 °F 79% 30.00 in 10.0 mi SW 11.5 mph - N/A   Clear
2:54 PM 39.0 °F 29.3 °F 30.9 °F 73% 29.99 in 10.0 mi WSW 19.6 mph - N/A   Scattered Clouds
3:54 PM 39.9 °F 30.5 °F 30.0 °F 68% 29.98 in 10.0 mi SW 19.6 mph - N/A   Overcast
4:54 PM 39.0 °F 29.6 °F 30.9 °F 73% 29.97 in 10.0 mi WSW 18.4 mph - N/A   Overcast
5:54 PM 41.0 °F 31.4 °F 30.9 °F 67% 29.92 in 10.0 mi WSW 21.9 mph 26.5 mph N/A   Overcast
6:54 PM 41.0 °F 31.6 °F 30.0 °F 65% 29.91 in 10.0 mi WSW 20.7 mph 26.5 mph N/A   Overcast
7:54 PM 39.0 °F 32.3 °F 30.9 °F 73% 29.88 in 10.0 mi West 10.4 mph - 0.01 in   Overcast
8:54 PM 39.9 °F 32.9 °F 30.9 °F 70% 29.83 in 10.0 mi West 11.5 mph - 0.00 in Rain Light Rain
9:54 PM 39.0 °F 32.3 °F 30.9 °F 73% 29.83 in 10.0 mi WNW 10.4 mph - 0.01 in   Overcast
10:54 PM 37.0 °F 28.9 °F 32.0 °F 82% 29.85 in 10.0 mi WSW 12.7 mph - 0.01 in   Overcast
11:54 PM 36.0 °F 30.3 °F 32.0 °F 86% 29.86 in 10.0 mi WNW 6.9 mph - N/A   Overcast